EA5EN Weather Reports


Display with metric or nautical units.
time (UTC)temp
F
wind
direction
speed
MPH
gust
MPH
rain 1hr
in
rain 24hr
in
rain mn
in
humidity
%
barometer
mb
20260504060130 63 31 2.0 4.0 0.00 0.00 0.00 94 1012.6
20260504045033 63 32 3.0 6.0 0.00 0.00 0.00 94 1012.3
20260504044047 63 19 3.0 7.0 0.00 0.00 0.00 94 1012.2
20260504043022 63 23 3.0 6.0 0.00 0.00 0.00 94 1012.2
20260504042017 63 26 3.0 6.0 0.00 0.00 0.00 94 1012.3
20260504041113 63 27 3.0 6.0 0.00 0.00 0.00 94 1012.3
20260504040128 63 16 3.0 6.0 0.00 0.00 0.00 95 1012.3
20260504035101 63 23 3.0 7.0 0.00 0.00 0.00 95 1012.3
20260504034056 63 20 3.0 6.0 0.00 0.00 0.00 95 1012.5
20260504033051 63 16 4.0 8.0 0.00 0.00 0.00 95 1012.5
20260504032046 63 18 3.0 4.0 0.00 0.00 0.00 94 1012.7
20260504031041 64 27 2.0 4.0 0.00 0.00 0.00 94 1012.7
20260504030035 64 26 3.0 4.0 0.00 0.00 0.00 94 1012.9
20260504025031 64 31 2.0 4.0 0.00 0.00 0.00 94 1012.8
20260504024025 64 26 3.0 4.0 0.00 0.00 0.00 94 1013.0
20260504023020 64 35 3.0 6.0 0.00 0.00 0.00 94 1012.9
20260504022116 64 23 2.0 6.0 0.00 0.00 0.00 95 1012.9
20260504021110 64 45 2.0 6.0 0.00 0.00 0.00 95 1012.9
20260504020105 64 31 3.0 7.0 0.00 0.00 0.00 95 1013.0
20260504015059 64 31 3.0 7.0 0.00 0.00 0.00 94 1013.0
20260504014054 64 41 3.0 4.0 0.00 0.00 0.00 94 1013.0
20260504013049 64 38 2.0 4.0 0.00 0.00 0.00 93 1013.1
20260504012044 64 55 3.0 6.0 0.00 0.00 0.00 93 1013.2
20260504011039 64 84 3.0 6.0 0.00 0.00 0.00 92 1013.3
20260504010034 64 40 3.0 6.0 0.00 0.00 0.00 92 1013.4
20260504005029 64 46 3.0 6.0 0.00 0.00 0.00 92 1013.4
20260504004023 65 47 3.0 7.0 0.00 0.00 0.00 92 1013.4
20260504003018 65 45 4.0 7.0 0.00 0.00 0.00 92 1013.3
20260504002113 65 42 3.0 6.0 0.00 0.00 0.00 92 1013.4
20260504001108 65 38 3.0 6.0 0.00 0.00 0.00 91 1013.5
20260504000123 65 42 3.0 6.0 0.00 0.00 0.00 91 1013.5
20260503235057 65 45 4.0 7.0 0.00 0.00 0.00 91 1013.5
20260503234112 65 48 4.0 6.0 0.00 0.00 0.00 90 1013.7
20260503233106 65 74 3.0 7.0 0.00 0.00 0.00 90 1013.6
20260503232041 65 62 5.0 8.0 0.00 0.00 0.00 90 1013.7
20260503231036 65 35 3.0 6.0 0.00 0.00 0.00 89 1013.8
20260503230051 65 40 3.0 6.0 0.00 0.00 0.00 89 1013.8
20260503225026 65 60 3.0 4.0 0.00 0.00 0.00 88 1013.9
20260503224021 65 54 2.0 4.0 0.00 0.00 0.00 87 1013.9
20260503223016 65 50 3.0 7.0 0.00 0.00 0.00 87 1013.9
20260503222112 66 70 4.0 8.0 0.00 0.00 0.00 86 1014.0
20260503221107 66 66 3.0 7.0 0.00 0.00 0.00 86 1014.1
20260503220059 66 41 3.0 6.0 0.00 0.00 0.00 85 1014.2
20260503215053 66 58 4.0 8.0 0.00 0.00 0.00 85 1014.3
20260503214048 66 41 4.0 8.0 0.00 0.00 0.00 85 1014.4
20260503213043 66 53 4.0 7.0 0.00 0.00 0.00 85 1014.3
20260503212058 66 55 5.0 9.0 0.00 0.00 0.00 85 1014.2
20260503211032 66 58 5.0 9.0 0.00 0.00 0.00 85 1014.3
20260503210026 66 42 4.0 7.0 0.00 0.00 0.00 84 1014.1
20260503205022 66 49 4.0 7.0 0.00 0.00 0.00 84 1014.1
20260503204016 66 69 4.0 8.0 0.00 0.00 0.00 84 1014.1
20260503203111 66 57 5.0 9.0 0.00 0.00 0.00 84 1013.9
20260503202106 66 50 6.0 9.0 0.00 0.00 0.00 84 1013.9
20260503201120 66 68 6.0 11.0 0.00 0.00 0.00 83 1013.7
20260503200054 66 65 6.0 11.0 0.00 0.00 0.00 83 1013.5
20260503195050 66 53 5.0 11.0 0.00 0.00 0.00 82 1013.3
20260503194044 66 67 7.0 13.0 0.00 0.00 0.00 82 1013.0
20260503193059 66 71 6.0 11.0 0.00 0.00 0.00 82 1012.9
20260503192054 67 80 7.0 14.0 0.00 0.00 0.00 81 1012.8
20260503191029 67 54 6.0 11.0 0.00 0.00 0.00 80 1012.5
20260503190024 67 64 8.0 14.0 0.00 0.00 0.00 80 1012.4
20260503185019 67 65 10.0 20.0 0.00 0.00 0.00 80 1012.3
20260503184114 67 52 8.0 18.0 0.00 0.00 0.00 78 1012.0
20260503183109 67 45 9.0 17.0 0.00 0.00 0.00 77 1011.9
20260503182124 68 59 8.0 13.0 0.00 0.00 0.00 76 1011.7
20260503181057 69 78 7.0 13.0 0.00 0.00 0.00 76 1011.7
20260503180052 70 37 7.0 13.0 0.00 0.00 0.00 74 1011.7
20260503175047 70 63 8.0 15.0 0.00 0.00 0.00 75 1011.6
20260503174042 71 71 7.0 16.0 0.00 0.00 0.00 74 1011.4
20260503173032 71 53 10.0 17.0 0.00 0.00 0.00 73 1011.1
20260503172027 72 46 8.0 15.0 0.00 0.00 0.00 71 1011.0
20260503171017 73 71 8.0 16.0 0.00 0.00 0.00 69 1010.9
20260503170107 74 63 7.0 14.0 0.00 0.00 0.00 68 1010.9
20260503131051 77 143 4.0 8.0 0.00 0.00 0.00 56 1013.0
20260503130201 78 221 4.0 8.0 0.00 0.00 0.00 56 1013.1
20260503100107 69 180 1.0 4.0 0.00 0.00 0.00 71 1015.6
20260503090108 66 68 4.0 7.0 0.00 0.00 0.00 78 1015.9
20260503081027 64 69 4.0 8.0 0.00 0.00 0.00 85 1015.9
20260503072101 64 60 3.0 6.0 0.00 0.00 0.00 87 1015.7
20260503071032 64 85 2.0 4.0 0.00 0.00 0.00 86 1015.7